INMARSAT 5-F1

Last updated on Jan. 15, 2021, 6:31 a.m. UTC

1 39476U 13073A   21014.89384368  .00000021  00000-0  00000-0 0  9993
2 39476   0.0179  48.7562 0000590  32.8674  57.2986  1.00269913 25740
UTC
Height (km)
Latitude
Longitude
Inclination
Orbital Period
UTC large
Height (km)
Speed (km/s)
/
Latitude / Longitude
Inclination (degrees)
Orbital Period (minutes)
Azimuth
Elevation
Range (km)
Doppler Factor
iOS Compass Heading
iOS Angle

Next 30 passes for location: Hong Kong

Rise time Rise Azimuth (degrees) Set time Set Azimuth (degrees) Duration Max altitude (degrees)

No matching passes for this satellites